Home > Weather > Thunder Bay > Past weeks

Flag for Canada Weather for the Past 2 Weeks in Thunder Bay, Ontario, Canada

Now
27 °F

Light snow. Mostly cloudy.


Feels Like: 17 °F
Forecast: 17 / 32 °F
Wind: 10 mph from Northeast

Location: Thunder Bay

Current Time: Feb 7, 2016 at 5:57:41 AM

Latest Report: Feb 7, 2016 at 5:00 AM


Visibility: 3 mi

Pressure: 29.60 "Hg

Humidity: 100%

Dew point: 27 °F

Location of Thunder BayLocation

Historic Weather in Thunder Bay — Graph

°F

Thunder Bay Temperature Yesterday

Maximum temperature yesterday: 23 °F (at 12:00 PM)
Minimum temperature yesterday: 16 °F (at 12:00 AM)
Average temperature yesterday: 21 °F

High & Low Weather Summary for the Past Weeks

 TemperatureHumidityPressure
High39 °F (Jan 30, 2:00 PM)100% (Jan 25, 3:00 AM)30.36 "Hg (Jan 25, 3:00 AM)
Low-18 °F (Jan 29, 6:00 AM)56% (Jan 28, 6:00 PM)29.28 "Hg (Jan 30, 1:00 PM)
Average19 °F82%29.89 "Hg
* Reported Jan 23 4:00 AM — Feb 7 4:00 AM, Thunder Bay, Weather by CustomWeather, © 2016

Note: Actual official high and low records may vary slightly from our data, if they occured in-between our weather recording intervals... More about our weather records

Advertising

Thunder Bay Weather History for the Previous 24 Hours

 ConditionsComfort  
Time TempWeatherWind HumidityBarometerVisibility
4:00 AM
Sun, Feb 7
32 °FLight snow. Mostly cloudy.3 mph93%29.64 "Hg3 mi
3:00 AM30 °FLight snow. Mostly cloudy.8 mph100%29.65 "Hg1 mi
2:00 AM28 °FLight snow. Low clouds.8 mph100%29.69 "Hg1 mi
1:00 AM27 °FLight snow. Low clouds.13 mph100%29.73 "Hg1 mi
12:00 AM25 °FLight snow. Low clouds.17 mph100%29.77 "Hg1 mi
11:00 PM
Sat, Feb 6
23 °FLight snow. Low clouds.15 mph93%29.82 "Hg1 mi
10:00 PM21 °FLight snow. Low clouds.10 mph100%29.86 "Hg1 mi
9:00 PM21 °FLight snow. Overcast.13 mph93%29.89 "Hg4 mi
8:00 PM19 °FLight snow. Overcast.14 mph93%29.92 "Hg10 mi
7:00 PM19 °FLight snow. Mostly cloudy.16 mph93%29.94 "Hg4 mi
6:00 PM21 °FLight snow. Overcast.16 mph93%29.95 "Hg4 mi
5:00 PM21 °FLight snow. Overcast.13 mph93%29.96 "Hg4 mi
4:00 PM23 °FLight snow. Overcast.12 mph80%29.98 "Hg6 mi
3:00 PM23 °FLight snow. Overcast.10 mph80%29.99 "Hg15 mi
2:00 PM23 °FLight snow. Overcast.10 mph80%30.01 "Hg8 mi
1:00 PM23 °FLight snow. Overcast.3 mph74%30.03 "Hg15 mi
12:00 PM23 °FOvercast.2 mph74%30.05 "Hg20 mi
11:00 AM21 °FOvercast.No wind80%30.05 "Hg20 mi
10:00 AM19 °FOvercast.2 mph79%30.06 "Hg20 mi
9:00 AM19 °FOvercast.3 mph79%30.07 "Hg20 mi
8:00 AM19 °FOvercast.5 mph79%30.06 "Hg15 mi
7:00 AM19 °FLight snow. Overcast.6 mph86%30.06 "Hg15 mi
6:00 AM19 °FMostly cloudy.5 mph86%30.06 "Hg15 mi
5:00 AM21 °FMostly cloudy.5 mph80%30.06 "Hg15 mi
Weather by CustomWeather, © 2016

See weather overviewHow to use our weather pages